GW3664 Weather Reports


time (UTC)temp
C
wind
direction
speed
KPH
gust
KPH
rain 1hr
cm
rain 24hr
cm
rain mn
cm
humidity
%
barometer
mb
20260906223548 26 70 4.8 16.1 0.00 0.00 0.00 59 1011.3
20260906223101 25 57 4.8 16.1 0.00 0.00 0.00 59 1011.2
20260906222551 25 12 4.8 16.1 0.00 0.00 0.00 60 1011.4
20260906222050 25 44 3.2 20.9 0.00 0.00 0.00 59 1011.7
20260906221555 25 55 6.4 20.9 0.00 0.00 0.00 60 1011.9
20260906221052 25 73 9.7 20.9 0.00 0.00 0.00 58 1011.9
20260906220551 26 79 6.4 17.7 0.00 0.00 0.00 58 1011.8
20260906220107 25 13 9.7 17.7 0.00 0.00 0.00 61 1011.8
20260906215552 25 109 6.4 16.1 0.00 0.00 0.00 59 1011.8
20260906215048 25 40 3.2 16.1 0.00 0.00 0.00 60 1011.7
20260906214601 25 61 6.4 17.7 0.00 0.00 0.00 60 1011.8
20260906214052 25 76 8.0 19.3 0.00 0.00 0.00 58 1011.8
20260906213552 26 103 6.4 19.3 0.00 0.00 0.00 58 1011.9
20260906213055 26 55 6.4 14.5 0.00 0.00 0.00 59 1011.9
20260906212550 26 67 1.6 14.5 0.00 0.00 0.00 58 1012.0
20260906212053 26 101 6.4 14.5 0.00 0.00 0.00 60 1011.9
20260906211602 25 0 4.8 12.9 0.00 0.00 0.00 58 1012.1
20260906211048 25 42 4.8 12.9 0.00 0.00 0.00 57 1012.1
20260906210552 25 52 3.2 16.1 0.00 0.00 0.00 58 1012.2
20260906210127 25 67 3.2 16.1 0.00 0.00 0.00 58 1012.3
20260906205552 25 77 8.0 16.1 0.00 0.00 0.00 58 1012.4
20260906205047 25 114 4.8 16.1 0.00 0.00 0.00 62 1012.6
20260906204558 25 106 6.4 16.1 0.00 0.00 0.00 59 1012.7
20260906204047 25 49 3.2 12.9 0.00 0.00 0.00 60 1012.7
20260906203551 25 103 4.8 16.1 0.00 0.00 0.00 59 1012.7
20260906203057 25 94 8.0 16.1 0.00 0.00 0.00 61 1012.9
20260906202550 25 59 8.0 19.3 0.00 0.00 0.00 61 1012.9
20260906202051 25 87 4.8 19.3 0.00 0.00 0.00 62 1013.0
20260906201557 25 107 3.2 16.1 0.00 0.00 0.00 62 1013.1
20260906201053 25 74 3.2 11.3 0.00 0.00 0.00 61 1013.1
20260906200548 25 38 4.8 12.9 0.00 0.00 0.00 62 1013.2
20260906200108 25 327 3.2 14.5 0.00 0.00 0.00 59 1013.3
20260906195550 25 338 6.4 14.5 0.00 0.00 0.00 61 1013.3
20260906195047 25 74 0.0 8.0 0.00 0.00 0.00 59 1013.3
20260906194558 25 153 1.6 8.0 0.00 0.00 0.00 62 1013.4
20260906194050 25 349 0.0 6.4 0.00 0.00 0.00 58 1013.5
20260906193550 25 347 3.2 12.9 0.00 0.00 0.00 59 1013.7
20260906193058 25 329 3.2 12.9 0.00 0.00 0.00 61 1013.7
20260906192550 25 0 3.2 9.7 0.00 0.00 0.00 60 1013.8
20260906192051 24 282 1.6 9.7 0.00 0.00 0.00 62 1013.9
20260906191559 24 209 4.8 9.7 0.00 0.00 0.00 62 1014.1
20260906191053 25 31 3.2 8.0 0.00 0.00 0.00 63 1014.2
20260906190556 24 314 1.6 8.0 0.00 0.00 0.00 64 1014.2
20260906190105 23 307 0.0 4.8 0.00 0.00 0.00 64 1014.3
20260906185552 23 0 1.6 6.4 0.00 0.00 0.00 65 1014.4
20260906185050 23 42 1.6 6.4 0.00 0.00 0.00 68 1014.7
20260906184624 23 65 1.6 11.3 0.00 0.00 0.00 66 1014.7
20260906184058 23 86 4.8 19.3 0.00 0.00 0.00 67 1014.8
20260906183554 22 89 4.8 19.3 0.00 0.00 0.00 67 1014.7
20260906183101 23 346 3.2 9.7 0.00 0.00 0.00 67 1014.7
20260906182554 22 61 0.0 11.3 0.00 0.00 0.00 70 1014.9
20260906182049 22 0 3.2 11.3 0.00 0.00 0.00 67 1015.0
20260906181602 22 48 3.2 9.7 0.00 0.00 0.00 67 1015.1
20260906181049 22 336 1.6 12.9 0.00 0.00 0.00 69 1015.2
20260906180552 22 340 4.8 12.9 0.00 0.00 0.00 69 1015.4
20260906180058 22 37 3.2 12.9 0.00 0.00 0.00 69 1015.6
20260906175550 22 32 3.2 8.0 0.00 0.00 0.00 69 1015.6
20260906175049 22 5 3.2 9.7 0.00 0.00 0.00 69 1015.8
20260906174556 22 321 3.2 12.9 0.00 0.00 0.00 67 1015.8
20260906174048 21 321 3.2 12.9 0.00 0.00 0.00 69 1015.9
20260906173549 21 328 6.4 12.9 0.00 0.00 0.00 69 1016.0
20260906173058 21 57 1.6 8.0 0.00 0.00 0.00 70 1016.0
20260906172550 21 344 1.6 8.0 0.00 0.00 0.00 69 1016.0
20260906172050 21 318 3.2 12.9 0.00 0.00 0.00 69 1016.1
20260906171559 21 297 3.2 12.9 0.00 0.00 0.00 70 1016.0
20260906171047 21 327 4.8 14.5 0.00 0.00 0.00 71 1016.0
20260906170551 21 297 4.8 14.5 0.00 0.00 0.00 70 1016.1
20260906170100 21 317 3.2 14.5 0.00 0.00 0.00 71 1016.0
20260906165551 21 352 4.8 14.5 0.00 0.00 0.00 71 1015.9
20260906165051 20 346 4.8 12.9 0.00 0.00 0.00 72 1015.9
20260906164555 20 325 3.2 12.9 0.00 0.00 0.00 72 1016.0
20260906164047 20 325 1.6 6.4 0.00 0.00 0.00 73 1016.0
20260906163548 20 336 1.6 6.4 0.00 0.00 0.00 72 1016.2
20260906163105 20 10 1.6 6.4 0.00 0.00 0.00 73 1016.2
20260906162550 20 355 1.6 9.7 0.00 0.00 0.00 73 1016.2
20260906162050 20 338 3.2 9.7 0.00 0.00 0.00 72 1016.3
20260906161558 20 342 3.2 8.0 0.00 0.00 0.00 72 1016.3
20260906161051 20 323 3.2 8.0 0.00 0.00 0.00 72 1016.3
20260906160549 20 329 1.6 9.7 0.00 0.00 0.00 73 1016.2
20260906160109 20 332 3.2 9.7 0.00 0.00 0.00 72 1016.3
20260906155551 20 338 3.2 9.7 0.00 0.00 0.00 72 1016.1
20260906155051 20 304 1.6 8.0 0.00 0.00 0.00 74 1016.1
20260906154605 20 321 1.6 6.4 0.00 0.00 0.00 73 1016.1
20260906154051 20 253 1.6 6.4 0.00 0.00 0.00 72 1016.1
20260906153548 19 256 1.6 4.8 0.00 0.00 0.00 72 1016.0
20260906153059 19 313 0.0 4.8 0.00 0.00 0.00 75 1015.9
20260906152549 19 0 1.6 8.0 0.00 0.00 0.00 77 1015.9
20260906152053 18 330 3.2 8.0 0.00 0.00 0.00 75 1016.0
20260906151557 18 0 0.0 4.8 0.00 0.00 0.00 73 1016.1
20260906151051 18 302 1.6 4.8 0.00 0.00 0.00 75 1016.2
20260906150554 17 0 0.0 4.8 0.00 0.00 0.00 77 1016.2
20260906150056 17 0 0.0 6.4 0.00 0.00 0.00 76 1016.2
20260906145554 17 348 0.0 6.4 0.00 0.00 0.00 78 1016.2
20260906145054 17 0 0.0 6.4 0.00 0.00 0.00 78 1016.3
20260906144602 16 0 0.0 4.8 0.00 0.00 0.00 80 1016.5
20260906144053 16 0 0.0 4.8 0.00 0.00 0.00 80 1016.4
20260906143554 16 340 1.6 6.4 0.00 0.00 0.00 80 1016.4
20260906143100 15 323 3.2 6.4 0.00 0.00 0.00 82 1016.4
20260906142553 15 0 1.6 6.4 0.00 0.00 0.00 83 1016.3
20260906142051 15 0 1.6 6.4 0.00 0.00 0.00 85 1016.3
20260906141620 15 0 0.0 0.0 0.00 0.00 0.00 86 1016.4
20260906141053 14 0 0.0 0.0 0.00 0.00 0.00 86 1016.4
20260906140550 13 0 0.0 0.0 0.00 0.00 0.00 87 1016.2
20260906140108 13 0 0.0 0.0 0.00 0.00 0.00 87 1016.4
20260906135551 13 0 0.0 4.8 0.00 0.00 0.00 87 1016.3
20260906135051 13 0 0.0 4.8 0.00 0.00 0.00 86 1016.2
20260906134617 13 0 1.6 4.8 0.00 0.00 0.00 87 1016.1
20260906134050 12 345 1.6 6.4 0.00 0.00 0.00 87 1016.2
20260906133550 12 0 1.6 6.4 0.00 0.00 0.00 86 1016.2
20260906133111 12 319 0.0 4.8 0.00 0.00 0.00 85 1016.0
20260906132551 12 274 1.6 4.8 0.00 0.00 0.00 85 1016.0
20260906132052 12 0 0.0 0.0 0.00 0.00 0.00 85 1016.1
20260906131606 12 0 0.0 0.0 0.00 0.00 0.00 85 1016.3
20260906131049 12 0 0.0 0.0 0.00 0.00 0.00 85 1016.3
20260906130552 12 0 0.0 0.0 0.00 0.00 0.00 84 1016.3
20260906130147 12 0 0.0 0.0 0.00 0.00 0.00 84 1016.2
20260906125551 12 0 0.0 0.0 0.00 0.00 0.00 84 1016.3
20260906125050 12 0 0.0 3.2 0.00 0.00 0.00 84 1016.1
20260906124610 13 0 0.0 3.2 0.00 0.00 0.00 83 1015.9
20260906124050 13 0 0.0 3.2 0.00 0.00 0.00 82 1016.0
20260906123551 13 0 0.0 0.0 0.00 0.00 0.00 83 1016.1
20260906123102 13 0 0.0 0.0 0.00 0.00 0.00 83 1016.2
20260906122550 13 0 0.0 0.0 0.00 0.00 0.00 82 1016.0
20260906122051 13 0 0.0 0.0 0.00 0.00 0.00 82 1016.0
20260906121609 13 0 0.0 0.0 0.00 0.00 0.00 82 1016.0
20260906121048 13 0 0.0 0.0 0.00 0.00 0.00 83 1016.2
20260906120548 13 0 0.0 0.0 0.00 0.00 0.00 81 1016.0
20260906120111 13 0 0.0 0.0 0.00 0.00 0.00 80 1015.8
20260906115551 13 0 0.0 0.0 0.00 0.00 0.00 79 1016.0
20260906115050 14 0 0.0 0.0 0.00 0.00 0.00 79 1016.0
20260906114602 14 0 0.0 0.0 0.00 0.00 0.00 80 1015.9
20260906114051 14 0 0.0 0.0 0.00 0.00 0.00 81 1016.0
20260906113548 14 0 0.0 0.0 0.00 0.00 0.00 78 1015.8
20260906113057 15 0 0.0 0.0 0.00 0.00 0.00 77 1015.9
20260906112548 15 0 0.0 0.0 0.00 0.00 0.00 76 1016.0
20260906112048 15 0 0.0 0.0 0.00 0.00 0.00 75 1016.1
20260906111602 15 0 0.0 6.4 0.00 0.00 0.00 75 1016.2
20260906111048 15 0 0.0 6.4 0.00 0.00 0.00 74 1015.9
20260906110550 15 298 3.2 6.4 0.00 0.00 0.00 74 1015.8
20260906110057 15 218 1.6 6.4 0.00 0.00 0.00 75 1015.8
20260906105548 15 0 0.0 6.4 0.00 0.00 0.00 74 1015.6
20260906105053 15 314 1.6 8.0 0.00 0.00 0.00 74 1015.3
20260906104557 15 10 3.2 8.0 0.00 0.00 0.00 74 1015.5
20260906104050 15 332 1.6 4.8 0.00 0.00 0.00 74 1015.5
20260906103549 15 0 0.0 0.0 0.00 0.00 0.00 74 1015.6
20260906103059 15 0 0.0 0.0 0.00 0.00 0.00 73 1015.8
20260906102551 15 0 0.0 0.0 0.00 0.00 0.00 73 1016.1
20260906102048 15 0 0.0 3.2 0.00 0.00 0.00 72 1016.3
20260906101601 15 0 0.0 8.0 0.00 0.00 0.00 71 1016.3
20260906101051 15 0 0.0 9.7 0.00 0.00 0.00 71 1016.2
20260906100551 15 5 3.2 9.7 0.00 0.00 0.00 71 1016.0
20260906100057 15 355 3.2 9.7 0.00 0.00 0.00 71 1016.0
20260906095550 16 332 4.8 12.9 0.00 0.00 0.00 71 1015.9
20260906095053 16 342 6.4 12.9 0.00 0.00 0.00 70 1016.0
20260906094558 16 342 6.4 12.9 0.00 0.00 0.00 70 1016.1
20260906094053 15 321 4.8 9.7 0.00 0.00 0.00 70 1015.8
20260906093551 15 319 4.8 9.7 0.00 0.00 0.00 70 1015.6
20260906093058 15 338 4.8 8.0 0.00 0.00 0.00 70 1015.6
20260906092551 15 360 4.8 8.0 0.00 0.00 0.00 69 1015.7
20260906092052 15 341 3.2 14.5 0.00 0.00 0.00 69 1015.9
20260906091558 16 351 4.8 14.5 0.00 0.00 0.00 68 1015.8
20260906091053 16 327 4.8 14.5 0.00 0.00 0.00 68 1015.8
20260906090550 16 339 3.2 9.7 0.00 0.00 0.00 68 1015.8
20260906090100 16 325 4.8 9.7 0.00 0.00 0.00 67 1015.8
20260906085554 16 345 3.2 12.9 0.00 0.00 0.00 66 1015.9
20260906085054 16 346 3.2 12.9 0.00 0.00 0.00 65 1015.9
20260906084556 16 346 4.8 12.9 0.00 0.00 0.00 65 1015.7
20260906084055 16 352 6.4 12.9 0.00 0.00 0.00 65 1015.7
20260906083554 16 324 4.8 12.9 0.00 0.00 0.00 65 1015.9
20260906083103 16 317 6.4 12.9 0.00 0.00 0.00 64 1015.9
20260906082551 16 336 6.4 12.9 0.00 0.00 0.00 64 1015.9
20260906082051 16 320 4.8 12.9 0.00 0.00 0.00 64 1015.9
20260906081600 16 313 4.8 12.9 0.00 0.00 0.00 65 1015.9
20260906081055 16 318 6.4 12.9 0.00 0.00 0.00 65 1015.9
20260906080553 16 312 3.2 8.0 0.00 0.00 0.00 66 1016.1
20260906080058 16 306 3.2 8.0 0.00 0.00 0.00 66 1016.1
20260906075552 16 325 4.8 8.0 0.00 0.00 0.00 66 1015.9
20260906075051 17 327 3.2 8.0 0.00 0.00 0.00 65 1015.9
20260906074557 17 325 3.2 8.0 0.00 0.00 0.00 65 1015.9
20260906074052 17 344 3.2 8.0 0.00 0.00 0.00 63 1016.0
20260906073551 17 332 1.6 9.7 0.00 0.00 0.00 63 1016.0
20260906073059 17 349 3.2 9.7 0.00 0.00 0.00 62 1016.0
20260906072553 18 355 3.2 12.9 0.00 0.00 0.00 61 1016.0
20260906072050 18 327 4.8 12.9 0.00 0.00 0.00 61 1016.1
20260906071601 18 352 4.8 12.9 0.00 0.00 0.00 60 1016.0
20260906071056 18 13 3.2 12.9 0.00 0.00 0.00 60 1015.9
20260906070552 19 29 6.4 12.9 0.00 0.00 0.00 60 1016.0
20260906070058 18 10 4.8 12.9 0.00 0.00 0.00 60 1016.1
20260906065554 18 22 4.8 12.9 0.00 0.00 0.00 59 1016.0
20260906065051 18 28 4.8 12.9 0.00 0.00 0.00 61 1016.1
20260906064557 18 20 4.8 12.9 0.00 0.00 0.00 61 1015.9
20260906064054 18 13 6.4 12.9 0.00 0.00 0.00 61 1016.1
20260906063550 17 14 4.8 8.0 0.00 0.00 0.00 61 1016.1
20260906063057 17 5 4.8 8.0 0.00 0.00 0.00 61 1016.0
20260906062550 17 360 3.2 8.0 0.00 0.00 0.00 60 1016.2
20260906062051 17 350 3.2 8.0 0.00 0.00 0.00 60 1016.1
20260906061606 17 348 3.2 8.0 0.00 0.00 0.00 61 1016.3
20260906061051 18 344 3.2 11.3 0.00 0.00 0.00 62 1016.2
20260906060550 18 11 4.8 11.3 0.00 0.00 0.00 58 1016.1
20260906060121 18 16 4.8 9.7 0.00 0.00 0.00 56 1016.0
20260906055552 18 10 4.8 8.0 0.00 0.00 0.00 55 1016.1
20260906055054 18 342 4.8 8.0 0.00 0.00 0.00 55 1016.1
20260906054601 18 350 4.8 8.0 0.00 0.00 0.00 54 1016.2
20260906054051 18 5 4.8 8.0 0.00 0.00 0.00 53 1016.2
20260906053552 18 360 4.8 8.0 0.00 0.00 0.00 53 1016.2
20260906053058 18 347 4.8 8.0 0.00 0.00 0.00 52 1016.3
20260906052554 18 355 4.8 8.0 0.00 0.00 0.00 53 1016.4
20260906052052 18 13 3.2 8.0 0.00 0.00 0.00 52 1016.5
20260906051604 18 360 3.2 8.0 0.00 0.00 0.00 52 1016.4
20260906051052 19 360 3.2 6.4 0.00 0.00 0.00 51 1016.4
20260906050553 19 5 3.2 8.0 0.00 0.00 0.00 51 1016.4
20260906050101 19 14 3.2 8.0 0.00 0.00 0.00 50 1016.4
20260906045556 19 352 3.2 8.0 0.00 0.00 0.00 49 1016.4
20260906045054 19 360 4.8 8.0 0.00 0.00 0.00 48 1016.2
20260906044559 19 342 4.8 8.0 0.00 0.00 0.00 48 1016.2
20260906044052 20 344 3.2 8.0 0.00 0.00 0.00 49 1016.1
20260906043555 20 348 4.8 8.0 0.00 0.00 0.00 48 1016.1
20260906043102 20 20 4.8 8.0 0.00 0.00 0.00 47 1016.1
20260906042553 20 5 4.8 11.3 0.00 0.00 0.00 47 1016.1
20260906042051 20 360 4.8 11.3 0.00 0.00 0.00 47 1016.2
20260906041602 20 360 4.8 9.7 0.00 0.00 0.00 48 1016.2
20260906041050 20 17 4.8 8.0 0.00 0.00 0.00 49 1016.2
20260906040551 20 355 4.8 6.4 0.00 0.00 0.00 49 1016.2
20260906040101 19 355 3.2 8.0 0.00 0.00 0.00 49 1016.2
20260906035551 20 338 3.2 8.0 0.00 0.00 0.00 49 1016.2
20260906035051 20 5 3.2 8.0 0.00 0.00 0.00 48 1016.3
20260906034605 20 5 3.2 8.0 0.00 0.00 0.00 47 1016.3
20260906034050 20 352 4.8 8.0 0.00 0.00 0.00 47 1016.2
20260906033550 20 5 3.2 8.0 0.00 0.00 0.00 47 1016.0
20260906033056 20 355 3.2 8.0 0.00 0.00 0.00 46 1016.2
20260906032551 21 352 3.2 9.7 0.00 0.00 0.00 44 1016.1
20260906032051 21 348 4.8 19.3 0.00 0.00 0.00 43 1016.1
20260906031555 22 360 3.2 19.3 0.00 0.00 0.00 43 1016.2
20260906031054 22 32 8.0 19.3 0.00 0.00 0.00 42 1016.2
20260906030554 22 30 4.8 16.1 0.00 0.00 0.00 42 1016.2
20260906030109 22 28 6.4 16.1 0.00 0.00 0.00 41 1016.1
20260906025550 22 52 8.0 16.1 0.00 0.00 0.00 41 1015.9
20260906025053 22 5 6.4 14.5 0.00 0.00 0.00 41 1015.7
20260906024603 22 22 6.4 14.5 0.00 0.00 0.00 41 1015.6
20260906024051 22 5 6.4 12.9 0.00 0.00 0.00 42 1015.6
20260906023554 22 36 6.4 12.9 0.00 0.00 0.00 41 1015.5
20260906023103 23 30 4.8 12.9 0.00 0.00 0.00 41 1015.6
20260906022552 22 11 6.4 12.9 0.00 0.00 0.00 41 1015.5
20260906022050 23 32 4.8 12.9 0.00 0.00 0.00 42 1015.5
20260906021558 23 355 4.8 11.3 0.00 0.00 0.00 41 1015.5
20260906021053 23 44 3.2 11.3 0.00 0.00 0.00 39 1015.5
20260906020554 23 27 4.8 12.9 0.00 0.00 0.00 40 1015.6
20260906020056 23 37 4.8 14.5 0.00 0.00 0.00 39 1015.6
20260906015553 23 42 3.2 16.1 0.00 0.00 0.00 39 1015.6
20260906015053 23 48 3.2 16.1 0.00 0.00 0.00 38 1015.6
20260906014607 23 44 4.8 16.1 0.00 0.00 0.00 39 1015.7
20260906014051 24 42 3.2 20.9 0.00 0.00 0.00 38 1015.7
20260906013550 24 65 6.4 20.9 0.00 0.00 0.00 36 1015.6
20260906013059 24 49 9.7 20.9 0.00 0.00 0.00 37 1015.5
20260906012554 24 38 8.0 16.1 0.00 0.00 0.00 37 1015.4
20260906012053 25 43 9.7 19.3 0.00 0.00 0.00 36 1015.4
20260906011604 25 57 9.7 19.3 0.00 0.00 0.00 35 1015.4
20260906011053 25 62 9.7 19.3 0.00 0.00 0.00 36 1015.5
20260906010550 25 66 9.7 19.3 0.00 0.00 0.00 34 1015.5
20260906010058 25 42 6.4 19.3 0.00 0.00 0.00 34 1015.5
20260906005552 25 55 9.7 20.9 0.00 0.00 0.00 33 1015.5
20260906005055 25 46 12.9 22.5 0.00 0.00 0.00 34 1015.3
20260906004601 25 42 9.7 22.5 0.00 0.00 0.00 33 1015.4
20260906004054 25 60 9.7 17.7 0.00 0.00 0.00 33 1015.3
20260906003554 26 56 6.4 14.5 0.00 0.00 0.00 33 1015.3
20260906003058 26 61 6.4 17.7 0.00 0.00 0.00 32 1015.3
20260906002552 26 49 9.7 17.7 0.00 0.00 0.00 32 1015.3
20260906002052 26 53 6.4 17.7 0.00 0.00 0.00 32 1015.3
20260906001555 26 61 8.0 17.7 0.00 0.00 0.00 34 1015.4
20260906001053 26 69 9.7 17.7 0.00 0.00 0.00 34 1015.4
20260906000550 26 41 6.4 14.5 0.00 0.00 0.00 32 1015.4
20260906000111 26 63 6.4 16.1 0.00 0.00 0.00 33 1015.4
20260905235550 26 59 8.0 20.9 0.00 0.00 0.00 31 1015.3
20260905235052 26 72 6.4 20.9 0.00 0.00 0.00 32 1015.3
20260905234606 26 76 9.7 20.9 0.00 0.00 0.00 33 1015.4
20260905234050 26 59 8.0 17.7 0.00 0.00 0.00 32 1015.4
20260905233558 26 86 8.0 19.3 0.00 0.00 0.00 33 1015.3
20260905233106 26 51 9.7 19.3 0.00 0.00 0.00 31 1015.2
20260905232551 26 54 6.4 16.1 0.00 0.00 0.00 34 1015.2
20260905232053 26 36 8.0 16.1 0.00 0.00 0.00 32 1015.3
20260905231601 26 73 6.4 16.1 0.00 0.00 0.00 34 1015.3
20260905231057 26 89 4.8 17.7 0.00 0.00 0.00 32 1015.3
20260905230554 26 46 8.0 17.7 0.00 0.00 0.00 33 1015.3
20260905230059 26 74 9.7 17.7 0.00 0.00 0.00 31 1015.2
20260905225553 26 110 8.0 19.3 0.00 0.00 0.00 34 1015.3
20260905225051 26 96 4.8 19.3 0.00 0.00 0.00 33 1015.3
20260905224604 26 79 8.0 19.3 0.00 0.00 0.00 32 1015.3
20260905224050 26 93 11.3 19.3 0.00 0.00 0.00 32 1015.3